Portada
METAR-TAF:

METAR-TAF

Aeroports :

Telfer, Austràlia

latitud: 21-42-54S, longitud: 122-13-43E, altitud: 296 m

Observació

L'informe es va fer fa 1 hora i 7 minuts, a les 22:00 UTC
Vent 17 kt del Sud-Est
Temperatura 31°C
Humitat 31%
Pressió 1007 hPa
Visibilitat 10 km o més

METAR: YTEF 122200Z AUTO 14017KT 9999 // NCD 31/12 Q1007

Hora: 07:07 (23:07 UTC)


TAF: manca

Observacions i pronòstics meteorològics de més de 4000 aeroports (METAR i TAF).

Les estacions disponibles són els punts grocs i vermells al mapa.

Posi el ratolí al punt desitjat per veure el nom de l'estació.

Feu clic per veure les observacions i els pronòstics meteorològics.

Per canviar el mapa: feu clic els botons verds amb una creu de color negre per apropar; al botó verd amb un guió per allunyar la imatge; o en les fletxes verdes per a mapes adjacents.


METAR-TAF: